TimeEST,TemperatureF,Dew PointF,Humidity,Sea Level PressureIn,VisibilityMPH,Wind Direction,Wind SpeedMPH,Gust SpeedMPH,PrecipitationIn,Events,Conditions,WindDirDegrees,DateUTC
12:53 AM,37.0,17.1,44,29.98,10.0,Calm,Calm,-,N/A,,Clear,0,2014-02-19 05:53:00
1:53 AM,32.0,16.0,52,29.96,10.0,Calm,Calm,-,N/A,,Clear,0,2014-02-19 06:53:00
2:53 AM,39.0,15.1,38,29.93,10.0,South,4.6,-,N/A,,Clear,180,2014-02-19 07:53:00
3:53 AM,27.0,16.0,63,29.88,10.0,NNE,3.5,-,N/A,,Clear,30,2014-02-19 08:53:00
4:53 AM,27.0,17.1,66,29.83,10.0,North,4.6,-,N/A,,Clear,350,2014-02-19 09:53:00
5:53 AM,27.0,21.9,81,29.82,10.0,Calm,Calm,-,N/A,,Overcast,0,2014-02-19 10:53:00
6:53 AM,30.9,27.0,85,29.84,3.0,Calm,Calm,-,0.08,Rain,Light Freezing Rain,0,2014-02-19 11:53:00
7:40 AM,32.0,28.9,88,29.78,2.0,NE,4.6,-,0.08,Rain,Light Freezing Rain,40,2014-02-19 12:40:00
7:53 AM,32.0,30.0,92,29.82,2.0,Calm,Calm,-,0.12,Rain,Light Freezing Rain,0,2014-02-19 12:53:00
8:05 AM,33.1,30.9,92,29.79,3.0,Calm,Calm,-,0.01,,Overcast,0,2014-02-19 13:05:00
8:53 AM,-9999,-9999,N/A,29.76,-9999.0,North,-9999.0,-,0.04,,Unknown,0,2014-02-19 13:53:00
9:53 AM,-9999,-9999,N/A,29.73,-9999.0,North,-9999.0,-,N/A,,Unknown,0,2014-02-19 14:53:00
10:30 AM,35.1,33.1,92,29.74,4.0,West,3.5,-,N/A,,Mostly Cloudy,260,2014-02-19 15:30:00
10:53 AM,37.0,34.0,89,29.77,6.0,Calm,Calm,-,N/A,,Overcast,0,2014-02-19 15:53:00
11:53 AM,37.9,34.0,86,29.75,9.0,Calm,Calm,-,N/A,,Overcast,0,2014-02-19 16:53:00
12:29 PM,39.9,36.0,86,29.69,10.0,SSW,3.5,-,N/A,,Overcast,210,2014-02-19 17:29:00
12:53 PM,39.0,36.0,89,29.72,10.0,SSW,8.1,-,N/A,,Overcast,210,2014-02-19 17:53:00
1:25 PM,42.1,37.9,85,29.68,10.0,SSW,11.5,-,0.00,Rain,Light Rain,200,2014-02-19 18:25:00
1:53 PM,43.0,39.0,86,29.71,9.0,SW,11.5,-,0.00,,Mostly Cloudy,230,2014-02-19 18:53:00
2:53 PM,48.0,36.0,63,29.72,10.0,West,28.8,36.8,0.01,,Mostly Cloudy,260,2014-02-19 19:53:00
3:53 PM,46.9,34.0,61,29.78,10.0,West,20.7,40.3,0.00,,Mostly Cloudy,270,2014-02-19 20:53:00
4:53 PM,45.0,30.9,58,29.85,10.0,West,21.9,29.9,N/A,,Overcast,260,2014-02-19 21:53:00
5:53 PM,43.0,30.0,60,29.95,10.0,WNW,15.0,26.5,N/A,,Overcast,290,2014-02-19 22:53:00
6:53 PM,42.1,30.0,62,30.02,10.0,WNW,21.9,27.6,N/A,,Scattered Clouds,290,2014-02-19 23:53:00
7:53 PM,39.9,28.0,63,30.08,10.0,WNW,23.0,28.8,N/A,,Partly Cloudy,290,2014-02-20 00:53:00
8:53 PM,39.0,28.0,65,30.07,10.0,WNW,12.7,-,N/A,,Clear,300,2014-02-20 01:53:00
9:53 PM,37.9,28.0,68,30.09,10.0,West,16.1,23.0,N/A,,Clear,280,2014-02-20 02:53:00
10:53 PM,37.0,26.1,65,30.12,10.0,WNW,9.2,-,N/A,,Clear,300,2014-02-20 03:53:00
11:53 PM,36.0,26.1,67,30.13,10.0,West,4.6,-,N/A,,Clear,280,2014-02-20 04:53:00